,,,PA_Meas_PMT16A,,PR_Meas_QMR101_102,,RH_Meas_QMH101,,SR_Meas_QMS101,,TA_Meas_QMH101,,GenWind,,GenWind,
date,time,status,PA,status,PR,status,RH,status,SR,status,TA,status,DirAvg,status,SpdAvg,
2010-06-01, 00:00:04,VALID,1000.78,VALID,0,VALID,90.1745,VALID,0,VALID,24.4837,VALID,107,VALID,0.930859,
2010-06-01, 00:01:04,VALID,1000.77,VALID,0,VALID,90.3423,VALID,0,VALID,24.4428,VALID,107,VALID,0.913672,
2010-06-01, 00:02:04,VALID,1000.78,VALID,0,VALID,90.5331,VALID,0,VALID,24.4056,VALID,107,VALID,0.871875,
2010-06-01, 00:03:04,VALID,1000.75,VALID,0,VALID,90.7849,VALID,0,VALID,24.3647,VALID,107,VALID,0.886328,
2010-06-01, 00:04:04,VALID,1000.73,VALID,0,VALID,90.8306,VALID,0,VALID,24.3257,VALID,107,VALID,0.801562,
2010-06-01, 00:05:04,VALID,1000.71,VALID,0,VALID,91.0443,VALID,0,VALID,24.3062,VALID,107,VALID,0.925,
2010-06-01, 00:06:04,VALID,1000.7,VALID,0,VALID,91.1282,VALID,0,VALID,24.2653,VALID,104,VALID,0.892578,
2010-06-01, 00:07:04,VALID,1000.72,VALID,0,VALID,91.1663,VALID,0,VALID,24.2458,VALID,103,VALID,0.730469,
2010-06-01, 00:08:04,VALID,1000.7,VALID,0,VALID,91.296,VALID,0,VALID,24.2263,VALID,103,VALID,0.69375,
2010-06-01, 00:09:04,VALID,1000.69,VALID,0,VALID,91.4334,VALID,0,VALID,24.2476,VALID,103,VALID,0.512109,
2010-06-01, 00:10:04,VALID,1000.64,VALID,0,VALID,91.6699,VALID,0,VALID,24.2476,VALID,103,VALID,0.583594,
2010-06-01, 00:11:04,VALID,1000.63,VALID,0,VALID,91.4105,VALID,0,VALID,24.1891,VALID,64,VALID,0.86875,
2010-06-01, 00:12:04,VALID,1000.66,VALID,0,VALID,91.1511,VALID,0,VALID,24.1305,VALID,61,VALID,0.844141,
2010-06-01, 00:13:04,VALID,1000.64,VALID,0,VALID,91.4944,VALID,0,VALID,24.0915,VALID,61,VALID,0.726563,
2010-06-01, 00:14:04,VALID,1000.63,VALID,0,VALID,91.5783,VALID,0,VALID,24.0915,VALID,62,VALID,0.746484,
2010-06-01, 00:15:04,VALID,1000.61,VALID,0,VALID,91.647,VALID,0,VALID,24.0506,VALID,62,VALID,0.753906,
2010-06-01, 00:16:04,VALID,1000.61,VALID,0,VALID,91.7385,VALID,0,VALID,24.072,VALID,62,VALID,0.532812,
2010-06-01, 00:17:04,VALID,1000.6,VALID,0,VALID,91.7004,VALID,0,VALID,24.072,VALID,62,VALID,0.339844,
2010-06-01, 00:18:04,VALID,1000.58,VALID,0,VALID,91.647,VALID,0,VALID,24.0701,VALID,62,VALID,0.207813,
2010-06-01, 00:19:04,VALID,1000.58,VALID,0,VALID,91.5936,VALID,0,VALID,24.072,VALID,62,VALID,0.167969,
2010-06-01, 00:20:04,VALID,1000.59,VALID,0,VALID,91.4181,VALID,0,VALID,24.0701,VALID,62,VALID,0.265234,
2010-06-01, 00:21:04,VALID,1000.58,VALID,0,VALID,91.2197,VALID,0,VALID,24.0525,VALID,62,VALID,0.404297,
2010-06-01, 00:22:04,VALID,1000.57,VALID,0,VALID,91.0977,VALID,0,VALID,23.9939,VALID,62,VALID,0.353906,
2010-06-01, 00:23:04,VALID,1000.58,VALID,0,VALID,91.174,VALID,0,VALID,23.9744,VALID,62,VALID,0.326172,
2010-06-01, 00:24:04,VALID,1000.59,VALID,0,VALID,91.2655,VALID,0,VALID,23.9159,VALID,62,VALID,0.121484,
2010-06-01, 00:25:04,VALID,1000.56,VALID,0,VALID,91.4334,VALID,0,VALID,23.8768,VALID,62,VALID,0.244141,
2010-06-01, 00:26:04,VALID,1000.52,VALID,0,VALID,91.6394,VALID,0,VALID,23.8573,VALID,62,VALID,0.286719,
2010-06-01, 00:27:04,VALID,1000.54,VALID,0,VALID,91.6928,VALID,0,VALID,23.8378,VALID,62,VALID,0.395703,
2010-06-01, 00:28:04,VALID,1000.51,VALID,0,VALID,91.8454,VALID,0.112286,VALID,23.7988,VALID,62,VALID,0.529297,
2010-06-01, 00:29:04,VALID,1000.51,VALID,0,VALID,92.0666,VALID,0,VALID,23.7793,VALID,62,VALID,0.6375,
2010-06-01, 00:30:04,VALID,1000.55,VALID,0,VALID,92.1963,VALID,0,VALID,23.7793,VALID,62,VALID,0.532422,
2010-06-01, 00:31:04,VALID,1000.54,VALID,0,VALID,92.2726,VALID,0,VALID,23.7579,VALID,62,VALID,0.482812,
2010-06-01, 00:32:04,VALID,1000.54,VALID,0,VALID,92.2192,VALID,0,VALID,23.7793,VALID,62,VALID,0.377734,
2010-06-01, 00:33:04,VALID,1000.57,VALID,0,VALID,92.204,VALID,0,VALID,23.7597,VALID,62,VALID,0.275391,
2010-06-01, 00:34:04,VALID,1000.59,VALID,0,VALID,92.1658,VALID,0,VALID,23.7597,VALID,62,VALID,0.0398437,
2010-06-01, 00:35:04,VALID,1000.57,VALID,0,VALID,92.1734,VALID,0,VALID,23.7402,VALID,62,VALID,0,
2010-06-01, 00:36:04,VALID,1000.6,VALID,0,VALID,92.265,VALID,0,VALID,23.7597,VALID,62,VALID,0.317969,
2010-06-01, 00:37:04,VALID,1000.59,VALID,0,VALID,92.3718,VALID,0,VALID,23.7597,VALID,62,VALID,0.355469,
2010-06-01, 00:38:04,VALID,1000.58,VALID,0,VALID,92.4023,VALID,0,VALID,23.7793,VALID,62,VALID,0.0304688,
2010-06-01, 00:39:04,VALID,1000.59,VALID,0,VALID,92.4176,VALID,0,VALID,23.7811,VALID,62,VALID,0,
2010-06-01, 00:40:04,VALID,1000.61,VALID,0,VALID,92.4557,VALID,0,VALID,23.8006,VALID,62,VALID,0,
2010-06-01, 00:41:04,VALID,1000.59,VALID,0,VALID,92.4863,VALID,0,VALID,23.7793,VALID,62,VALID,0,
2010-06-01, 00:42:04,VALID,1000.59,VALID,0,VALID,92.4557,VALID,0,VALID,23.7793,VALID,62,VALID,0,
2010-06-01, 00:43:04,VALID,1000.59,VALID,0,VALID,92.4023,VALID,0,VALID,23.7793,VALID,62,VALID,0,
2010-06-01, 00:44:04,VALID,1000.61,VALID,0,VALID,92.4405,VALID,0,VALID,23.8006,VALID,62,VALID,0,
2010-06-01, 00:45:04,VALID,1000.63,VALID,0,VALID,92.5473,VALID,0,VALID,23.7988,VALID,62,VALID,0,
2010-06-01, 00:46:04,VALID,1000.64,VALID,0,VALID,92.5931,VALID,0,VALID,23.7793,VALID,62,VALID,0,
2010-06-01, 00:47:04,VALID,1000.69,VALID,0,VALID,92.5778,VALID,0,VALID,23.7793,VALID,62,VALID,0.00898437,
2010-06-01, 00:48:04,VALID,1000.67,VALID,0,VALID,92.4634,VALID,0,VALID,23.7988,VALID,62,VALID,0.130859,
2010-06-01, 00:49:04,VALID,1000.66,VALID,0,VALID,92.2726,VALID,0,VALID,23.7793,VALID,62,VALID,0,
2010-06-01, 00:50:04,VALID,1000.67,VALID,0,VALID,92.265,VALID,0,VALID,23.7597,VALID,62,VALID,0.0839844,
2010-06-01, 00:51:04,VALID,1000.66,VALID,0,VALID,92.2421,VALID,0,VALID,23.7597,VALID,62,VALID,0.0289063,
2010-06-01, 00:52:04,VALID,1000.64,VALID,0,VALID,92.1963,VALID,0,VALID,23.7402,VALID,62,VALID,0.147656,
2010-06-01, 00:53:04,VALID,1000.63,VALID,0,VALID,92.0819,VALID,0,VALID,23.7207,VALID,62,VALID,0.176953,
2010-06-01, 00:54:04,VALID,1000.61,VALID,0,VALID,92.0819,VALID,0,VALID,23.7012,VALID,62,VALID,0.0980469,
2010-06-01, 00:55:04,VALID,1000.58,VALID,0,VALID,92.1658,VALID,0,VALID,23.6817,VALID,62,VALID,0,
2010-06-01, 00:56:04,VALID,1000.59,VALID,0,VALID,92.1658,VALID,0,VALID,23.6622,VALID,62,VALID,0,
2010-06-01, 00:57:04,VALID,1000.57,VALID,0,VALID,92.0971,VALID,0,VALID,23.6232,VALID,62,VALID,0,
2010-06-01, 00:58:04,VALID,1000.55,VALID,0,VALID,92.326,VALID,0,VALID,23.6232,VALID,62,VALID,0,
2010-06-01, 00:59:04,VALID,1000.54,VALID,0,VALID,92.4328,VALID,0,VALID,23.6427,VALID,62,VALID,0,
2010-06-01, 01:00:04,VALID,1000.5,VALID,0,VALID,92.3871,VALID,0,VALID,23.6232,VALID,62,VALID,0,
2010-06-01, 01:01:04,VALID,1000.49,VALID,0,VALID,92.471,VALID,0,VALID,23.6232,VALID,62,VALID,0,
2010-06-01, 01:02:04,VALID,1000.46,VALID,0,VALID,92.326,VALID,0,VALID,23.5841,VALID,62,VALID,0,
2010-06-01, 01:03:04,VALID,1000.46,VALID,0,VALID,92.265,VALID,0,VALID,23.5646,VALID,62,VALID,0,
2010-06-01, 01:04:04,VALID,1000.44,VALID,0,VALID,92.4405,VALID,0,VALID,23.5646,VALID,62,VALID,0,
2010-06-01, 01:05:04,VALID,1000.43,VALID,0,VALID,92.6007,VALID,0,VALID,23.5841,VALID,62,VALID,0,
2010-06-01, 01:06:04,VALID,1000.4,VALID,0,VALID,92.7151,VALID,0,VALID,23.5646,VALID,62,VALID,0,
2010-06-01, 01:07:04,VALID,1000.41,VALID,0,VALID,92.7838,VALID,0,VALID,23.5841,VALID,62,VALID,0,
2010-06-01, 01:08:04,VALID,1000.4,VALID,0,VALID,92.8143,VALID,0,VALID,23.5841,VALID,62,VALID,0,
2010-06-01, 01:09:04,VALID,1000.42,VALID,0,VALID,92.8448,VALID,0,VALID,23.6036,VALID,62,VALID,0,
2010-06-01, 01:10:04,VALID,1000.39,VALID,0,VALID,92.822,VALID,0,VALID,23.6036,VALID,62,VALID,0,
2010-06-01, 01:11:04,VALID,1000.4,VALID,0,VALID,92.8677,VALID,0,VALID,23.5841,VALID,62,VALID,0,
2010-06-01, 01:12:04,VALID,1000.39,VALID,0,VALID,92.8296,VALID,0,VALID,23.5823,VALID,62,VALID,0,
2010-06-01, 01:13:04,VALID,1000.4,VALID,0,VALID,92.738,VALID,0,VALID,23.6036,VALID,62,VALID,0,
2010-06-01, 01:14:04,VALID,1000.4,VALID,0,VALID,92.6541,VALID,0,VALID,23.5841,VALID,62,VALID,0,
2010-06-01, 01:15:04,VALID,1000.38,VALID,0,VALID,92.5931,VALID,0,VALID,23.5646,VALID,62,VALID,0,
2010-06-01, 01:16:04,VALID,1000.39,VALID,0,VALID,92.532,VALID,0,VALID,23.5256,VALID,62,VALID,0,
2010-06-01, 01:17:04,VALID,1000.38,VALID,0,VALID,92.5626,VALID,0,VALID,23.5061,VALID,62,VALID,0,
2010-06-01, 01:18:04,VALID,1000.33,VALID,0,VALID,92.5549,VALID,0,VALID,23.4866,VALID,62,VALID,0,
2010-06-01, 01:19:04,VALID,1000.37,VALID,0,VALID,92.6465,VALID,0,VALID,23.4475,VALID,62,VALID,0,
2010-06-01, 01:20:04,VALID,1000.35,VALID,0,VALID,92.7914,VALID,0,VALID,23.4475,VALID,62,VALID,0.215625,
2010-06-01, 01:21:04,VALID,1000.34,VALID,0,VALID,93.0203,VALID,0,VALID,23.5061,VALID,62,VALID,0.644141,
2010-06-01, 01:22:04,VALID,1000.34,VALID,0,VALID,93.2034,VALID,0,VALID,23.5646,VALID,83,VALID,0.727734,
2010-06-01, 01:23:04,VALID,1000.32,VALID,0,VALID,93.2797,VALID,0,VALID,23.6036,VALID,83,VALID,0.697266,
2010-06-01, 01:24:04,VALID,1000.32,VALID,0,VALID,93.3026,VALID,0,VALID,23.664,VALID,83,VALID,0.662891,
2010-06-01, 01:25:04,VALID,1000.3,VALID,0,VALID,93.2797,VALID,0,VALID,23.6622,VALID,83,VALID,0.588281,
2010-06-01, 01:26:04,VALID,1000.29,VALID,0,VALID,93.2187,VALID,0,VALID,23.6409,VALID,83,VALID,0.509375,
2010-06-01, 01:27:04,VALID,1000.23,VALID,0,VALID,93.1882,VALID,0,VALID,23.6622,VALID,83,VALID,0.417188,
2010-06-01, 01:28:04,VALID,1000.21,VALID,0,VALID,93.1195,VALID,0,VALID,23.664,VALID,83,VALID,0.405859,
2010-06-01, 01:29:04,VALID,1000.18,VALID,0,VALID,93.0585,VALID,0,VALID,23.6427,VALID,82,VALID,0.461719,
2010-06-01, 01:30:04,VALID,1000.16,VALID,0,VALID,92.9974,VALID,0,VALID,23.6232,VALID,81,VALID,0.508594,
2010-06-01, 01:31:04,VALID,1000.16,VALID,0,VALID,93.0432,VALID,0,VALID,23.6232,VALID,63,VALID,0.639453,
2010-06-01, 01:32:04,VALID,1000.14,VALID,0,VALID,93.0737,VALID,0,VALID,23.6232,VALID,63,VALID,0.589844,
2010-06-01, 01:33:04,VALID,1000.17,VALID,0,VALID,93.0737,VALID,0,VALID,23.6445,VALID,63,VALID,0.553516,
2010-06-01, 01:34:04,VALID,1000.16,VALID,0,VALID,93.0356,VALID,0,VALID,23.6036,VALID,56,VALID,0.648047,
2010-06-01, 01:35:04,VALID,1000.18,VALID,0,VALID,92.9822,VALID,0,VALID,23.5841,VALID,53,VALID,0.616797,
2010-06-01, 01:36:04,VALID,1000.17,VALID,0,VALID,92.9211,VALID,0,VALID,23.5646,VALID,53,VALID,0.421875,
2010-06-01, 01:37:04,VALID,1000.15,VALID,0,VALID,92.9135,VALID,0,VALID,23.5646,VALID,53,VALID,0.273438,
2010-06-01, 01:38:04,VALID,1000.13,VALID,0,VALID,92.8677,VALID,0,VALID,23.5664,VALID,53,VALID,0.208984,
2010-06-01, 01:39:04,VALID,1000.1,VALID,0,VALID,92.8143,VALID,0,VALID,23.5451,VALID,53,VALID,0.166406,
2010-06-01, 01:40:04,VALID,1000.1,VALID,0,VALID,92.7914,VALID,0,VALID,23.5256,VALID,53,VALID,0.1375,
2010-06-01, 01:41:04,VALID,1000.1,VALID,0,VALID,92.8448,VALID,0,VALID,23.5469,VALID,53,VALID,0.00195313,
2010-06-01, 01:42:04,VALID,1000.08,VALID,0,VALID,92.8525,VALID,0,VALID,23.5469,VALID,53,VALID,0,
2010-06-01, 01:43:04,VALID,1000.11,VALID,0,VALID,92.8754,VALID,0,VALID,23.5256,VALID,53,VALID,0,
2010-06-01, 01:44:04,VALID,1000.1,VALID,0,VALID,92.8754,VALID,0,VALID,23.5256,VALID,53,VALID,0,
2010-06-01, 01:45:04,VALID,1000.12,VALID,0,VALID,92.8906,VALID,0,VALID,23.5256,VALID,53,VALID,0.182031,
2010-06-01, 01:46:04,VALID,1000.16,VALID,0,VALID,92.8983,VALID,0,VALID,23.5256,VALID,53,VALID,0.283984,
2010-06-01, 01:47:04,VALID,1000.15,VALID,0,VALID,92.8906,VALID,0,VALID,23.5256,VALID,53,VALID,0.216406,
2010-06-01, 01:48:04,VALID,1000.14,VALID,0,VALID,92.8601,VALID,0,VALID,23.5451,VALID,53,VALID,0.115625,
2010-06-01, 01:49:04,VALID,1000.11,VALID,0,VALID,92.8906,VALID,0,VALID,23.5256,VALID,53,VALID,0.003125,
2010-06-01, 01:50:04,VALID,1000.06,VALID,0,VALID,92.8906,VALID,0,VALID,23.5256,VALID,53,VALID,0,
2010-06-01, 01:51:04,VALID,1000.04,VALID,0,VALID,92.8983,VALID,0,VALID,23.5451,VALID,53,VALID,0,
2010-06-01, 01:52:04,VALID,1000.01,VALID,0,VALID,92.9211,VALID,0,VALID,23.5256,VALID,53,VALID,0,
2010-06-01, 01:53:04,VALID,999.955,VALID,0,VALID,92.9288,VALID,0,VALID,23.5451,VALID,53,VALID,0.0078125,
2010-06-01, 01:54:04,VALID,999.941,VALID,0,VALID,92.9822,VALID,0,VALID,23.5646,VALID,53,VALID,0.116797,
2010-06-01, 01:55:04,VALID,999.912,VALID,0,VALID,92.9288,VALID,0,VALID,23.5646,VALID,53,VALID,0,
2010-06-01, 01:56:04,VALID,999.885,VALID,0,VALID,92.8525,VALID,0,VALID,23.5646,VALID,53,VALID,0,
2010-06-01, 01:57:04,VALID,999.851,VALID,0,VALID,92.8143,VALID,0,VALID,23.5646,VALID,53,VALID,0,
2010-06-01, 01:58:04,VALID,999.866,VALID,0,VALID,92.7991,VALID,0,VALID,23.5451,VALID,53,VALID,0.239063,
2010-06-01, 01:59:04,VALID,999.844,VALID,0,VALID,92.8372,VALID,0,VALID,23.5646,VALID,53,VALID,0.275,
2010-06-01, 02:00:04,VALID,999.841,VALID,0,VALID,92.9059,VALID,0,VALID,23.6036,VALID,53,VALID,0.217578,
2010-06-01, 02:01:04,VALID,999.838,VALID,0,VALID,92.9364,VALID,0,VALID,23.6232,VALID,53,VALID,0.220313,
2010-06-01, 02:02:04,VALID,999.847,VALID,0,VALID,92.9288,VALID,0,VALID,23.6214,VALID,53,VALID,0.166406,
2010-06-01, 02:03:04,VALID,999.82,VALID,0,VALID,92.9288,VALID,0,VALID,23.6214,VALID,53,VALID,0.230469,
2010-06-01, 02:04:04,VALID,999.792,VALID,0,VALID,92.9211,VALID,0,VALID,23.6622,VALID,53,VALID,0.259375,
2010-06-01, 02:05:04,VALID,999.816,VALID,0,VALID,92.9288,VALID,0,VALID,23.6622,VALID,53,VALID,0.328516,
2010-06-01, 02:06:04,VALID,999.786,VALID,0,VALID,92.9135,VALID,0,VALID,23.6817,VALID,53,VALID,0.338672,
2010-06-01, 02:07:04,VALID,999.846,VALID,0,VALID,92.883,VALID,0,VALID,23.6817,VALID,53,VALID,0.305859,
2010-06-01, 02:08:04,VALID,999.833,VALID,0,VALID,92.8601,VALID,0,VALID,23.7012,VALID,53,VALID,0.40625,
2010-06-01, 02:09:04,VALID,999.838,VALID,0,VALID,92.8296,VALID,0,VALID,23.7207,VALID,53,VALID,0.469922,
2010-06-01, 02:10:04,VALID,999.849,VALID,0,VALID,92.738,VALID,0,VALID,23.7402,VALID,53,VALID,0.6,
2010-06-01, 02:11:04,VALID,999.858,VALID,0,VALID,92.5397,VALID,0,VALID,23.7988,VALID,53,VALID,0.491406,
2010-06-01, 02:12:04,VALID,999.863,VALID,0,VALID,92.2421,VALID,0,VALID,23.7988,VALID,53,VALID,0.375781,
2010-06-01, 02:13:04,VALID,999.838,VALID,0,VALID,91.9674,VALID,0,VALID,23.8573,VALID,53,VALID,0.518359,
2010-06-01, 02:14:04,VALID,999.821,VALID,0,VALID,91.7385,VALID,0,VALID,23.8963,VALID,41,VALID,0.630078,
2010-06-01, 02:15:04,VALID,999.795,VALID,0,VALID,91.502,VALID,0,VALID,23.9159,VALID,33,VALID,0.675781,
2010-06-01, 02:16:04,VALID,999.795,VALID,0,VALID,91.3571,VALID,0,VALID,23.9159,VALID,29,VALID,0.770312,
2010-06-01, 02:17:04,VALID,999.787,VALID,0,VALID,91.2045,VALID,0,VALID,23.9159,VALID,22,VALID,0.566797,
2010-06-01, 02:18:04,VALID,999.749,VALID,0,VALID,91.3494,VALID,0,VALID,23.8945,VALID,22,VALID,0.625781,
2010-06-01, 02:19:04,VALID,999.739,VALID,0,VALID,91.3876,VALID,0,VALID,23.8963,VALID,22,VALID,0.727344,
2010-06-01, 02:20:04,VALID,999.768,VALID,0,VALID,91.3876,VALID,0,VALID,23.8768,VALID,22,VALID,0.65,
2010-06-01, 02:21:04,VALID,999.748,VALID,0,VALID,91.4486,VALID,0,VALID,23.8378,VALID,22,VALID,0.629297,
2010-06-01, 02:22:04,VALID,999.729,VALID,0,VALID,91.5707,VALID,0,VALID,23.8183,VALID,22,VALID,0.464844,
2010-06-01, 02:23:04,VALID,999.701,VALID,0,VALID,91.6699,VALID,0,VALID,23.7793,VALID,22,VALID,0.413672,
2010-06-01, 02:24:04,VALID,999.673,VALID,0,VALID,91.7309,VALID,0,VALID,23.7597,VALID,22,VALID,0.500391,
2010-06-01, 02:25:04,VALID,999.645,VALID,0,VALID,91.8759,VALID,0,VALID,23.7402,VALID,22,VALID,0.464844,
2010-06-01, 02:26:04,VALID,999.622,VALID,0,VALID,92.0285,VALID,0,VALID,23.7189,VALID,22,VALID,0.503906,
2010-06-01, 02:27:04,VALID,999.636,VALID,0,VALID,92.1506,VALID,0,VALID,23.7402,VALID,22,VALID,0.614844,
2010-06-01, 02:28:04,VALID,999.628,VALID,0,VALID,92.1963,VALID,0,VALID,23.7402,VALID,22,VALID,0.6375,
2010-06-01, 02:29:04,VALID,999.624,VALID,0,VALID,92.1734,VALID,0,VALID,23.7207,VALID,22,VALID,0.712109,
2010-06-01, 02:30:04,VALID,999.635,VALID,0,VALID,92.2116,VALID,0,VALID,23.7012,VALID,22,VALID,0.492969,
2010-06-01, 02:31:04,VALID,999.647,VALID,0,VALID,92.2421,VALID,0,VALID,23.7012,VALID,22,VALID,0.542969,
2010-06-01, 02:32:04,VALID,999.64,VALID,0,VALID,92.326,VALID,0,VALID,23.7207,VALID,22,VALID,0.415625,
2010-06-01, 02:33:04,VALID,999.616,VALID,0,VALID,92.3108,VALID,0,VALID,23.7207,VALID,22,VALID,0.266016,
2010-06-01, 02:34:04,VALID,999.643,VALID,0,VALID,92.2955,VALID,0,VALID,23.7207,VALID,22,VALID,0.190234,
2010-06-01, 02:35:04,VALID,999.61,VALID,0,VALID,92.204,VALID,0,VALID,23.7402,VALID,22,VALID,0.198828,
2010-06-01, 02:36:04,VALID,999.641,VALID,0,VALID,92.1811,VALID,0,VALID,23.7207,VALID,22,VALID,0.208203,
2010-06-01, 02:37:04,VALID,999.646,VALID,0,VALID,92.1887,VALID,0,VALID,23.7012,VALID,22,VALID,0.127344,
2010-06-01, 02:38:04,VALID,999.692,VALID,0,VALID,92.1734,VALID,0,VALID,23.6622,VALID,22,VALID,0.321875,
2010-06-01, 02:39:04,VALID,999.696,VALID,0,VALID,92.3413,VALID,0,VALID,23.6427,VALID,22,VALID,0.333984,
2010-06-01, 02:40:04,VALID,999.711,VALID,0,VALID,92.2955,VALID,0,VALID,23.6232,VALID,22,VALID,0.389062,
2010-06-01, 02:41:04,VALID,999.733,VALID,0,VALID,92.2268,VALID,0,VALID,23.5823,VALID,22,VALID,0.554297,
2010-06-01, 02:42:04,VALID,999.763,VALID,0,VALID,92.4328,VALID,0,VALID,23.5841,VALID,65,VALID,0.642969,
2010-06-01, 02:43:04,VALID,999.761,VALID,0,VALID,92.2803,VALID,0,VALID,23.5451,VALID,100,VALID,0.764844,
2010-06-01, 02:44:04,VALID,999.782,VALID,0,VALID,92.1963,VALID,0,VALID,23.5256,VALID,101,VALID,0.660156,
2010-06-01, 02:45:04,VALID,999.783,VALID,0,VALID,92.1811,VALID,0,VALID,23.5256,VALID,101,VALID,0.519922,
2010-06-01, 02:46:04,VALID,999.758,VALID,0,VALID,92.1887,VALID,0,VALID,23.5043,VALID,100,VALID,0.509375,
2010-06-01, 02:47:04,VALID,999.77,VALID,0,VALID,92.0285,VALID,0,VALID,23.5061,VALID,100,VALID,0.682422,
2010-06-01, 02:48:04,VALID,999.797,VALID,0,VALID,92.0514,VALID,0,VALID,23.5061,VALID,96,VALID,0.599219,
2010-06-01, 02:49:04,VALID,999.804,VALID,0,VALID,92.0895,VALID,0,VALID,23.4866,VALID,84,VALID,0.753125,
2010-06-01, 02:50:04,VALID,999.845,VALID,0,VALID,92.0971,VALID,0,VALID,23.4866,VALID,79,VALID,0.882813,
2010-06-01, 02:51:04,VALID,999.864,VALID,0,VALID,92.0132,VALID,0,VALID,23.4671,VALID,79,VALID,0.886719,
2010-06-01, 02:52:04,VALID,999.895,VALID,0,VALID,92.12,VALID,0,VALID,23.4263,VALID,79,VALID,0.9375,
2010-06-01, 02:53:04,VALID,999.895,VALID,0,VALID,92.2879,VALID,0,VALID,23.428,VALID,79,VALID,0.919531,
2010-06-01, 02:54:04,VALID,999.9,VALID,0,VALID,92.5473,VALID,0,VALID,23.4475,VALID,89,VALID,0.923047,
2010-06-01, 02:55:04,VALID,999.871,VALID,0,VALID,92.8296,VALID,0,VALID,23.5061,VALID,92,VALID,0.758203,
2010-06-01, 02:56:04,VALID,999.853,VALID,0,VALID,92.6312,VALID,0,VALID,23.5061,VALID,92,VALID,0.596484,
2010-06-01, 02:57:04,VALID,999.852,VALID,0,VALID,92.6083,VALID,0,VALID,23.5256,VALID,92,VALID,0.559375,
2010-06-01, 02:58:04,VALID,999.813,VALID,0,VALID,92.532,VALID,0,VALID,23.5238,VALID,92,VALID,0.298047,
2010-06-01, 02:59:04,VALID,999.804,VALID,0,VALID,92.4405,VALID,0,VALID,23.5043,VALID,92,VALID,0.209766,
2010-06-01, 03:00:04,VALID,999.822,VALID,0,VALID,92.3871,VALID,0,VALID,23.5061,VALID,92,VALID,0.0550781,
2010-06-01, 03:01:04,VALID,999.821,VALID,0,VALID,92.2726,VALID,0,VALID,23.4866,VALID,92,VALID,0,
2010-06-01, 03:02:04,VALID,999.808,VALID,0,VALID,92.1658,VALID,0,VALID,23.428,VALID,92,VALID,0.304297,
2010-06-01, 03:03:04,VALID,999.76,VALID,0,VALID,92.3794,VALID,0,VALID,23.4475,VALID,92,VALID,0.307422,
2010-06-01, 03:04:04,VALID,999.764,VALID,0,VALID,92.4328,VALID,0,VALID,23.4263,VALID,92,VALID,0.366797,
2010-06-01, 03:05:04,VALID,999.761,VALID,0,VALID,92.3566,VALID,0,VALID,23.4085,VALID,92,VALID,0.449609,
2010-06-01, 03:06:04,VALID,999.755,VALID,0,VALID,92.3871,VALID,0,VALID,23.389,VALID,92,VALID,0.336719,
2010-06-01, 03:07:04,VALID,999.738,VALID,0,VALID,92.532,VALID,0,VALID,23.3677,VALID,92,VALID,0.126953,
2010-06-01, 03:08:04,VALID,999.727,VALID,0,VALID,92.6617,VALID,0,VALID,23.3677,VALID,92,VALID,0,
2010-06-01, 03:09:04,VALID,999.68,VALID,0,VALID,92.7914,VALID,0,VALID,23.389,VALID,92,VALID,0,
2010-06-01, 03:10:04,VALID,999.693,VALID,0,VALID,92.8677,VALID,0,VALID,23.389,VALID,92,VALID,0,
2010-06-01, 03:11:04,VALID,999.693,VALID,0,VALID,92.883,VALID,0,VALID,23.389,VALID,92,VALID,0,
2010-06-01, 03:12:04,VALID,999.711,VALID,0,VALID,92.9517,VALID,0,VALID,23.4085,VALID,92,VALID,0,
2010-06-01, 03:13:04,VALID,999.729,VALID,0,VALID,92.9364,VALID,0,VALID,23.428,VALID,92,VALID,0,
2010-06-01, 03:14:04,VALID,999.732,VALID,0,VALID,92.883,VALID,0,VALID,23.4263,VALID,92,VALID,0.0984375,
2010-06-01, 03:15:04,VALID,999.76,VALID,0,VALID,92.822,VALID,0,VALID,23.4475,VALID,154,VALID,0.424609,
2010-06-01, 03:16:04,VALID,999.755,VALID,0,VALID,92.677,VALID,0,VALID,23.4475,VALID,156,VALID,0.370703,
2010-06-01, 03:17:04,VALID,999.771,VALID,0,VALID,92.4634,VALID,0,VALID,23.4458,VALID,156,VALID,0.438672,
2010-06-01, 03:18:04,VALID,999.791,VALID,0,VALID,92.204,VALID,0,VALID,23.4866,VALID,156,VALID,0.555859,
2010-06-01, 03:19:04,VALID,999.754,VALID,0,VALID,91.8225,VALID,0,VALID,23.5061,VALID,151,VALID,0.403125,
2010-06-01, 03:20:04,VALID,999.76,VALID,0,VALID,91.5631,VALID,0,VALID,23.5061,VALID,127,VALID,0.894531,
2010-06-01, 03:21:04,VALID,999.769,VALID,0,VALID,91.5554,VALID,0,VALID,23.5433,VALID,120,VALID,0.897266,
2010-06-01, 03:22:04,VALID,999.742,VALID,0,VALID,90.7772,VALID,0,VALID,23.6036,VALID,89,VALID,0.544922,
2010-06-01, 03:23:04,VALID,999.769,VALID,0,VALID,90.556,VALID,0,VALID,23.6445,VALID,68,VALID,0.473047,
2010-06-01, 03:24:04,VALID,999.809,VALID,0,VALID,90.7085,VALID,0,VALID,23.6036,VALID,67,VALID,0.519922,
2010-06-01, 03:25:04,VALID,999.844,VALID,0,VALID,90.3576,VALID,0,VALID,23.5646,VALID,67,VALID,0.367969,
2010-06-01, 03:26:04,VALID,999.823,VALID,0,VALID,90.3194,VALID,0,VALID,23.5256,VALID,67,VALID,0.299219,
2010-06-01, 03:27:04,VALID,999.846,VALID,0,VALID,90.5178,VALID,0,VALID,23.4671,VALID,67,VALID,0.263281,
2010-06-01, 03:28:04,VALID,999.843,VALID,0,VALID,90.9909,VALID,0,VALID,23.4085,VALID,67,VALID,0.258594,
2010-06-01, 03:29:04,VALID,999.857,VALID,0,VALID,91.3647,VALID,0,VALID,23.389,VALID,67,VALID,0.349609,
2010-06-01, 03:30:04,VALID,999.885,VALID,0,VALID,91.647,VALID,0,VALID,23.3695,VALID,67,VALID,0.233594,
2010-06-01, 03:31:04,VALID,999.871,VALID,0,VALID,91.8301,VALID,0,VALID,23.3908,VALID,54,VALID,0.390234,
2010-06-01, 03:32:04,VALID,999.906,VALID,0,VALID,91.8454,VALID,0,VALID,23.3305,VALID,30,VALID,0.378125,
2010-06-01, 03:33:04,VALID,999.896,VALID,0,VALID,91.8683,VALID,0,VALID,23.2915,VALID,30,VALID,0.415625,
2010-06-01, 03:34:04,VALID,999.89,VALID,0,VALID,92.0666,VALID,0,VALID,23.2719,VALID,30,VALID,0.239453,
2010-06-01, 03:35:04,VALID,999.913,VALID,0,VALID,92.2574,VALID,0,VALID,23.2524,VALID,30,VALID,0.202344,
2010-06-01, 03:36:04,VALID,999.893,VALID,0,VALID,92.4634,VALID,0,VALID,23.2524,VALID,30,VALID,0.282422,
2010-06-01, 03:37:04,VALID,999.926,VALID,0,VALID,92.6083,VALID,0,VALID,23.2524,VALID,30,VALID,0,
2010-06-01, 03:38:04,VALID,999.922,VALID,0,VALID,92.5397,VALID,0,VALID,23.2329,VALID,30,VALID,0.16875,
2010-06-01, 03:39:04,VALID,999.961,VALID,0,VALID,92.6388,VALID,0,VALID,23.2134,VALID,44,VALID,0.561328,
2010-06-01, 03:40:04,VALID,999.947,VALID,0,VALID,92.7304,VALID,0,VALID,23.2134,VALID,54,VALID,0.342578,
2010-06-01, 03:41:04,VALID,999.988,VALID,0,VALID,92.7075,VALID,0,VALID,23.2134,VALID,53,VALID,0.297266,
2010-06-01, 03:42:04,VALID,999.967,VALID,0,VALID,92.7838,VALID,0,VALID,23.2134,VALID,53,VALID,0.356641,
2010-06-01, 03:43:04,VALID,999.965,VALID,0,VALID,92.7914,VALID,0,VALID,23.2329,VALID,53,VALID,0.344531,
2010-06-01, 03:44:04,VALID,999.96,VALID,0,VALID,92.7838,VALID,0,VALID,23.2329,VALID,53,VALID,0.475391,
2010-06-01, 03:45:04,VALID,999.937,VALID,0,VALID,92.5854,VALID,0,VALID,23.2134,VALID,53,VALID,0.456641,
2010-06-01, 03:46:04,VALID,999.93,VALID,0,VALID,92.5091,VALID,0,VALID,23.1939,VALID,53,VALID,0.366016,
2010-06-01, 03:47:04,VALID,999.919,VALID,0,VALID,92.471,VALID,0,VALID,23.1531,VALID,53,VALID,0.311719,
2010-06-01, 03:48:04,VALID,999.89,VALID,0,VALID,92.4328,VALID,0,VALID,23.1336,VALID,53,VALID,0.1875,
2010-06-01, 03:49:04,VALID,999.913,VALID,0,VALID,92.4634,VALID,0,VALID,23.1141,VALID,53,VALID,0,